• In Portugal
  • List of Countries
  • For 7 days
  • Water Temperature
  • Satellite Maps
  • Weather Map
  • Weather Widgets
  • user-avatar
    Login

    Hourly Weather Korçe

    Today, 17 December, Sunday

    Time Temperature Precipitation Wind Pressure Humidity
    00:00 +5°C° 1.4 mm 1 mps 659 mmHg 95%
    01:00 +4°C° 1.4 mm 2 mps 659 mmHg 96%
    02:00 +4°C° 1.5 mm 2 mps 659 mmHg 95%
    03:00 +4°C° 1.5 mm 2 mps 659 mmHg 94%
    04:00 +4°C° 1.5 mm 2 mps 659 mmHg 94%
    05:00 +3°C° 0.7 mm 2 mps 659 mmHg 93%
    06:00 +3°C° 0.7 mm 2 mps 660 mmHg 93%
    07:00 +3°C° 0.7 mm 2 mps 660 mmHg 93%
    08:00 +3°C° 0.3 mm 2 mps 660 mmHg 90%
    09:00 +4°C° 0.3 mm 2 mps 661 mmHg 86%
    10:00 +4°C° 0.3 mm 2 mps 661 mmHg 83%
    11:00 +4°C° 0.1 mm 2 mps 662 mmHg 79%
    12:00 +5°C° 0.1 mm 2 mps 662 mmHg 75%
    13:00 +5°C° 0.1 mm 2 mps 662 mmHg 71%
    14:00 +4°C° 0.2 mm 2 mps 662 mmHg 75%
    15:00 +4°C° 0.2 mm 2 mps 662 mmHg 79%
    16:00 +3°C° 0.2 mm 2 mps 662 mmHg 83%
    17:00 +3°C° 0.2 mm 1 mps 662 mmHg 85%
    18:00 +3°C° 0.2 mm 1 mps 663 mmHg 88%
    19:00 +2°C° 0.2 mm 1 mps 663 mmHg 90%
    20:00 +2°C° 0.1 mm 1 mps 663 mmHg 91%
    21:00 +2°C° 0.1 mm 1 mps 663 mmHg 91%
    22:00 +1°C° 0.1 mm 1 mps 664 mmHg 92%
    23:00 +1°C° 0.1 mm 1 mps 664 mmHg 91%

    Tomorrow, 18 December, Monday

    Time Temperature Precipitation Wind Pressure Humidity
    00:00 -1°C° 0.1 mm 2 mps 664 mmHg 91%
    01:00 -1°C° 0.1 mm 2 mps 664 mmHg 91%
    02:00 -2°C° 0.1 mm 2 mps 664 mmHg 91%
    03:00 0°C° 0.1 mm 1 mps 664 mmHg 91%
    04:00 0°C° 0.1 mm 1 mps 664 mmHg 91%
    05:00 0°C° 0.1 mm 1 mps 664 mmHg 91%
    06:00 0°C° 0.1 mm 1 mps 664 mmHg 90%
    07:00 0°C° 0.1 mm 1 mps 664 mmHg 90%
    08:00 +1°C° 0.1 mm 1 mps 665 mmHg 84%
    09:00 +2°C° 0.1 mm 1 mps 665 mmHg 79%
    10:00 +3°C° 0.1 mm 1 mps 665 mmHg 73%
    11:00 +3°C° 0.2 mm 1 mps 665 mmHg 72%
    12:00 +3°C° 0.2 mm 1 mps 665 mmHg 72%
    13:00 +2°C° 0.2 mm 2 mps 664 mmHg 71%
    14:00 +1°C° 0.4 mm 2 mps 664 mmHg 75%
    15:00 +2°C° 0.4 mm 1 mps 664 mmHg 79%
    16:00 +1°C° 0.4 mm 1 mps 664 mmHg 83%
    17:00 +1°C° 0.3 mm 1 mps 664 mmHg 85%
    18:00 -2°C° 0.3 mm 2 mps 664 mmHg 88%
    19:00 -2°C° 0.3 mm 2 mps 664 mmHg 91%
    20:00 -2°C° 0.1 mm 2 mps 665 mmHg 91%
    21:00 -1°C° 0.1 mm 1 mps 665 mmHg 92%
    22:00 -1°C° 0.1 mm 1 mps 665 mmHg 93%
    23:00 -1°C° 0 mm 1 mps 665 mmHg 92%

    Day after tomorrow, 19 December, Tuesday

    Time Temperature Precipitation Wind Pressure Humidity
    00:00 -2°C° 0 mm 1 mps 665 mmHg 92%
    01:00 -2°C° 0 mm 1 mps 665 mmHg 92%
    02:00 -3°C° 0 mm 1 mps 666 mmHg 91%
    03:00 -3°C° 0 mm 1 mps 666 mmHg 90%
    04:00 -3°C° 0 mm 1 mps 666 mmHg 89%
    05:00 -3°C° 0 mm 1 mps 666 mmHg 88%
    06:00 -3°C° 0 mm 1 mps 667 mmHg 88%
    07:00 -3°C° 0 mm 1 mps 667 mmHg 87%
    08:00 -2°C° 0 mm 1 mps 668 mmHg 81%
    09:00 -1°C° 0 mm 1 mps 668 mmHg 75%
    10:00 0°C° 0 mm 1 mps 669 mmHg 68%
    11:00 0°C° 0 mm 1 mps 669 mmHg 66%
    12:00 0°C° 0 mm 1 mps 669 mmHg 64%
    13:00 -1°C° 0 mm 2 mps 669 mmHg 62%
    14:00 -2°C° 0.1 mm 2 mps 669 mmHg 67%
    15:00 -2°C° 0.1 mm 2 mps 669 mmHg 71%
    16:00 -1°C° 0.1 mm 1 mps 669 mmHg 75%
    17:00 -2°C° 0 mm 1 mps 669 mmHg 77%
    18:00 -2°C° 0 mm 1 mps 669 mmHg 79%
    19:00 -3°C° 0 mm 1 mps 670 mmHg 81%
    20:00 -3°C° 0 mm 1 mps 670 mmHg 81%
    21:00 -3°C° 0 mm 1 mps 670 mmHg 82%
    22:00 -4°C° 0 mm 1 mps 670 mmHg 82%
    23:00 -4°C° 0 mm 1 mps 670 mmHg 81%

    20 December, Wednesday

    Time Temperature Precipitation Wind Pressure Humidity
    00:00 -4°C° 0 mm 1 mps 670 mmHg 81%
    01:00 -4°C° 0 mm 1 mps 670 mmHg 80%
    02:00 -4°C° 0 mm 1 mps 669 mmHg 79%
    03:00 -4°C° 0 mm 1 mps 669 mmHg 78%
    04:00 -4°C° 0 mm 1 mps 669 mmHg 77%
    05:00 -4°C° 0 mm 1 mps 669 mmHg 76%
    06:00 -4°C° 0 mm 1 mps 669 mmHg 76%
    07:00 -4°C° 0 mm 1 mps 670 mmHg 75%
    08:00 -3°C° 0 mm 1 mps 670 mmHg 68%
    09:00 -2°C° 0 mm 1 mps 670 mmHg 61%
    10:00 -1°C° 0 mm 1 mps 671 mmHg 54%
    11:00 0°C° 0 mm 1 mps 671 mmHg 52%
    12:00 0°C° 0 mm 1 mps 670 mmHg 50%
    13:00 +1°C° 0 mm 1 mps 670 mmHg 49%
    14:00 0°C° 0 mm 1 mps 670 mmHg 54%
    15:00 -1°C° 0 mm 1 mps 670 mmHg 59%
    16:00 -2°C° 0 mm 1 mps 670 mmHg 65%
    17:00 -2°C° 0 mm 1 mps 670 mmHg 67%
    18:00 -3°C° 0 mm 1 mps 670 mmHg 69%
    19:00 -3°C° 0 mm 1 mps 670 mmHg 72%
    20:00 -3°C° 0 mm 1 mps 671 mmHg 72%
    21:00 -3°C° 0 mm 1 mps 671 mmHg 73%
    22:00 -4°C° 0 mm 1 mps 671 mmHg 74%
    23:00 -4°C° 0 mm 1 mps 671 mmHg 74%

    21 December, Thursday

    Time Temperature Precipitation Wind Pressure Humidity
    00:00 -4°C° 0 mm 1 mps 671 mmHg 75%
    01:00 -4°C° 0 mm 1 mps 671 mmHg 76%
    02:00 -4°C° 0 mm 1 mps 671 mmHg 76%
    03:00 -4°C° 0 mm 1 mps 671 mmHg 75%
    04:00 -4°C° 0 mm 1 mps 671 mmHg 75%
    05:00 -6°C° 0 mm 1 mps 672 mmHg 75%
    06:00 -6°C° 0 mm 1 mps 672 mmHg 74%
    07:00 -6°C° 0 mm 1 mps 672 mmHg 74%
    08:00 -3°C° 0 mm 1 mps 673 mmHg 67%
    09:00 -2°C° 0 mm 1 mps 673 mmHg 60%
    10:00 -1°C° 0 mm 1 mps 674 mmHg 53%
    11:00 0°C° 0 mm 1 mps 674 mmHg 51%
    12:00 +1°C° 0 mm 1 mps 673 mmHg 49%
    13:00 -1°C° 0 mm 2 mps 673 mmHg 47%
    14:00 -2°C° 0 mm 2 mps 673 mmHg 52%
    15:00 -3°C° 0 mm 2 mps 673 mmHg 58%
    16:00 -4°C° 0 mm 2 mps 672 mmHg 64%
    17:00 -4°C° 0 mm 2 mps 672 mmHg 65%
    18:00 -3°C° 0 mm 1 mps 672 mmHg 67%
    19:00 -4°C° 0 mm 1 mps 672 mmHg 69%
    20:00 -4°C° 0 mm 1 mps 672 mmHg 66%
    21:00 -4°C° 0 mm 1 mps 673 mmHg 63%
    22:00 -4°C° 0 mm 1 mps 673 mmHg 61%
    23:00 -4°C° 0 mm 1 mps 672 mmHg 60%

    22 December, Friday

    Time Temperature Precipitation Wind Pressure Humidity
    00:00 -3°C° 0 mm 1 mps 672 mmHg 59%
    01:00 -3°C° 0 mm 1 mps 672 mmHg 58%
    02:00 -3°C° 0 mm 1 mps 672 mmHg 60%
    03:00 -3°C° 0 mm 1 mps 672 mmHg 61%
    04:00 -3°C° 0 mm 1 mps 671 mmHg 62%
    05:00 -3°C° 0 mm 1 mps 671 mmHg 63%
    06:00 -3°C° 0 mm 1 mps 671 mmHg 65%
    07:00 -2°C° 0 mm 1 mps 671 mmHg 66%
    08:00 -1°C° 0 mm 1 mps 671 mmHg 63%
    09:00 +1°C° 0 mm 1 mps 672 mmHg 60%
    10:00 +3°C° 0 mm 1 mps 672 mmHg 58%
    11:00 +4°C° 0 mm 1 mps 672 mmHg 58%
    12:00 +5°C° 0 mm 1 mps 671 mmHg 59%
    13:00 +5°C° 0 mm 1 mps 671 mmHg 60%
    14:00 +4°C° 0 mm 1 mps 670 mmHg 67%
    15:00 +3°C° 0 mm 1 mps 670 mmHg 74%
    16:00 +2°C° 0 mm 1 mps 669 mmHg 81%
    17:00 +1°C° 0 mm 1 mps 669 mmHg 82%
    18:00 0°C° 0 mm 1 mps 668 mmHg 84%
    19:00 0°C° 0 mm 1 mps 668 mmHg 86%
    20:00 0°C° 0 mm 1 mps 668 mmHg 87%
    21:00 0°C° 0 mm 1 mps 668 mmHg 88%
    22:00 0°C° 0 mm 1 mps 667 mmHg 88%
    23:00 0°C° 0.1 mm 1 mps 667 mmHg 90%
    Show more